Location: Badrzychowice
(50.3492°N, 20.7826°E)
Time: 15:07:41
(UTC+00:00)

Daily predictions for brighter satellites

Satellite Brightness Start Highest point End
(mag) Time Altitude Azimuth Time Altitude Azimuth Time Altitude Azimuth
Terra 2.1 19:15:09 10° SSE 19:19:46 57° ENE 19:24:25 10° N
Meteor 1-21 Rocket 4.3 19:16:32 10° S 19:21:58 62° E 19:27:27 10° NNE
NOSS 2-3 (C) 3.8 19:23:06 10° S 19:26:25 34° ESE 19:30:04 10° ENE
GP-B 3.5 19:25:07 10° N 19:29:31 70° W 19:33:54 10° SSW
Meteor 2-1 Rocket 4.5 19:25:03 10° N 19:30:38 57° ENE 19:36:05 10° SSE
Cosmos 1833 Rocket 3.4 19:25:30 10° NNW 19:30:56 44° NE 19:36:19 10° SE
ATLAS CENTAUR R/B 1.3 19:27:42 10° NW 19:31:40 83° SW 19:35:48 10° SE
Okean 1 Rocket 4.1 19:27:51 10° NNW 19:32:09 48° W 19:36:27 10° SSW
Cosmos 1437 Rocket 4.4 19:32:54 10° SE 19:35:05 15° E 19:37:17 10° NE
USA 305 3.6 19:32:02 10° W 19:35:47 48° NNW 19:39:10 10° ENE
Cosmos 1455 Rocket 3.1 19:33:03 10° N 19:37:29 88° ENE 19:41:51 10° S
NOSS 2-2 (D) 3.0 19:37:36 10° SSW 19:40:42 43° SE 19:43:42 10° NE
Cosmos 44 4.5 19:36:49 10° SSE 19:41:01 25° ESE 19:45:06 10° ENE
Lacrosse 5 1.9 19:36:36 10° WSW 19:41:40 89° NNW 19:46:46 10° ENE
Cosmos 1975 Rocket 3.2 19:37:27 10° S 19:41:50 57° E 19:46:13 10° NNE
Cosmos 1025 Rocket 3.2 19:38:16 10° SSW 19:42:30 74° W 19:46:47 10° N
Cosmos 2082 Rocket 3.9 19:39:07 10° NNW 19:43:33 23° NE 19:47:56 10° E
Cosmos 2184 Rocket 4.2 19:37:12 10° S 19:43:34 83° W 19:49:56 10° N
ERS-1 Rocket 3.1 19:39:15 10° S 19:44:16 78° WSW 19:49:18 10° NNW
Spot 2 Rocket 3.5 19:39:58 10° SSE 19:45:04 82° ENE 19:50:12 10° NNW
ATLAS 5 CENTAUR R/B 2.0 19:43:33 10° WSW 19:46:50 52° NW 19:50:34 10° NE
Cosmos 220 Rocket 4.2 19:44:02 10° NNW 19:48:07 54° ENE 19:51:52 12° SE
Cosmos 1844 Rocket 3.3 19:45:49 10° SW 19:51:18 61° WNW 19:56:52 10° NNE
Cosmos 2278 Rocket 3.8 19:49:26 11° SE 19:52:41 17° E 19:56:11 10° ENE
Resurs 01 Rocket 4.4 19:52:31 10° WSW 19:54:31 13° W 19:56:33 10° WNW
Cosmos 2341 Rocket 4.5 19:49:11 10° SSE 19:55:05 44° E 20:01:04 10° NNE
USA 307 3.4 19:54:13 10° W 19:58:04 53° N 20:01:46 10° ENE
Meteor 1-11 4.3 19:55:03 10° S 20:00:44 71° E 20:06:24 10° NNE
MetOp-A 4.2 19:57:03 12° SE 20:01:01 45° ENE 20:05:08 10° N
Cosmos 1606 2.4 19:57:26 10° N 20:01:01 81° E 20:04:09 13° SSE
Okean O Rocket 4.2 19:59:20 10° SW 20:01:49 15° W 20:04:18 10° NW
CZ-4C R/B 4.2 19:57:38 10° NW 20:03:15 32° NNE 20:10:04 10° E
SL-23 DEB 4.3 20:03:00 10° WNW 20:06:47 74° SSW 20:13:06 10° ESE
Cosmos 2154 Rocket 4.4 20:01:35 10° SSW 20:07:53 69° WNW 20:14:16 10° N
Cosmos 1869 3.2 20:08:05 10° NNW 20:11:55 82° W 20:15:15 13° S
Ariane Rocket 3.3 20:07:26 10° S 20:12:29 66° WSW 20:17:32 10° NNW
Cosmos 1536 Rocket 4.4 20:10:07 15° SSE 20:13:06 34° E 20:17:00 10° NNE
Helios 1B 4.5 20:10:33 10° NNE 20:14:52 78° ESE 20:19:11 10° S
MOS 1 Rocket 4.1 20:12:23 10° S 20:16:51 46° W 20:21:09 10° NNW
ATLAS 3B R/B 4.2 20:14:16 13° SE 20:17:23 17° ESE 20:21:56 10° ENE
ISS -3.5 20:16:11 10° W 20:19:29 68° N 20:22:48 10° E
ARIANE 5 R/B 3.8 20:21:27 15° ESE 20:24:35 32° ENE 20:28:34 10° N
USA 290 4.4 20:25:33 12° E 20:25:35 12° E 20:27:00 10° ENE
GENESIS II 3.9 20:24:06 10° NW 20:27:41 77° SW 20:29:52 22° SSE
Cosmos 2098 4.5 20:25:19 17° S 20:27:58 58° E 20:31:03 10° NNE
Cosmos 2228 2.9 20:24:15 10° N 20:28:29 86° ENE 20:31:33 18° S
Cosmos 1943 Rocket 3.6 20:26:53 16° SE 20:29:19 21° E 20:33:22 10° NE
NOSS 2-3 (D) 3.5 20:25:58 10° SW 20:29:38 74° NW 20:33:53 10° NE
Geosat 3.9 20:25:09 10° NNE 20:30:11 77° ESE 20:35:12 10° SSW
Timation 2 Rocket 4.3 20:28:04 10° SW 20:34:21 71° NW 20:40:26 10° NNE
Gbstr 26 Del rocket 3.6 20:30:53 10° W 20:35:29 76° N 20:41:13 10° E
Cosmos 1125 Rocket 3.7 20:30:47 10° SSW 20:36:05 75° WNW 20:41:25 10° NNE
Cosmos 2150 Rocket 4.1 20:34:25 10° SSW 20:39:47 70° ESE 20:45:14 10° NNE
NOSS 3-1 (C) 3.5 20:37:12 13° S 20:41:08 40° ESE 20:46:30 10° NE
USA 276 3.3 20:39:47 10° W 20:42:16 24° SSW 20:42:48 22° SSW
ALOS 2 4.4 20:41:55 11° ESE 20:44:54 21° ENE 20:48:10 10° NNE
Cosmos 2084 4.2 20:41:13 10° WSW 20:45:13 51° NW 20:49:04 10° NE
Cosmos 2084 Rocket 3.9 20:44:31 10° NW 20:48:26 50° NE 20:51:14 17° ESE
SeaSat 1 3.5 20:47:14 13° ESE 20:51:12 39° NE 20:55:46 10° NNW
Cosmos 2366 rocket 3.9 20:45:59 12° S 20:51:40 89° E 20:57:51 10° N
NOSS 2-2 (E) 4.5 20:49:43 10° WSW 20:52:40 35° NW 20:55:41 10° NNE
Terra 3.9 20:54:10 10° SW 20:57:43 21° W 21:01:16 10° NW
Cosmos 1812 3.4 20:57:42 10° N 21:01:02 36° ENE 21:02:28 25° ESE
SL-8 Rocket 4.2 20:55:40 10° SSW 21:01:54 71° W 21:08:15 10° N
PSLV R/B 4.5 21:03:41 10° NNE 21:07:27 39° E 21:08:54 28° SE
Meteor 2-13 Rocket 4.5 21:01:34 10° N 21:07:46 89° WSW 21:11:57 22° S
USA 305 3.5 21:04:54 10° WNW 21:08:25 43° N 21:11:29 10° E
ATLAS CENTAUR R/B 3.8 21:07:03 10° W 21:08:40 12° WSW 21:10:19 10° SW
Cosmos 1892 Rocket 4.3 21:08:00 26° SE 21:09:55 39° E 21:14:04 10° NNE
Cosmos 1437 Rocket 3.6 21:07:19 13° SW 21:10:22 44° WNW 21:13:52 10° N
Cosmos 1140 Rocket 4.3 21:06:35 10° NNW 21:11:28 42° ENE 21:14:53 18° ESE
Cosmos 1833 Rocket 3.6 21:09:36 10° NW 21:14:48 38° WSW 21:18:22 18° SSW
NOSS 3-1 (A) 3.7 21:16:36 26° SSE 21:18:33 36° ESE 21:23:48 10° NE
Cosmos 2123 Rocket 4.5 21:13:08 10° N 21:19:16 52° ENE 21:23:11 22° SE
Cosmos 44 3.7 21:16:36 10° SW 21:21:50 69° NW 21:26:51 10° NE
Cosmos 1000 Rocket 4.5 21:18:06 10° N 21:24:18 78° E 21:28:02 25° SSE
Lacrosse 5 3.2 21:20:17 10° W 21:25:06 42° N 21:29:56 10° ENE
MINOTAUR 4 R/B 4.2 21:22:36 10° NNE 21:25:16 36° E 21:25:19 36° ESE
Cosmos 1606 Rocket 3.7 21:23:33 10° NNW 21:27:52 66° W 21:29:59 28° S
Cosmos 2082 Rocket 2.1 21:22:45 10° NNW 21:28:25 89° ENE 21:31:39 27° SSE
Cosmos 1726 Rocket 3.5 21:25:45 10° NNW 21:30:06 82° W 21:32:05 32° S
USA 307 3.4 21:27:55 10° WNW 21:31:42 50° N 21:35:10 10° E
Cosmos 2278 Rocket 2.2 21:31:13 15° SSW 21:35:58 90° WNW 21:41:41 10° NNE
Cosmos 2369 Rocket 4.0 21:37:52 13° ESE 21:39:21 15° E 21:42:21 10° ENE
ULPM Upper Stage 2.7 21:38:10 10° NW 21:42:34 88° NE 21:44:40 30° SE
CZ-2C R/B 4.0 21:38:41 10° N 21:43:15 65° WNW 21:46:20 21° SSW
H-2A R/B 2.2 21:44:33 39° SSE 21:45:58 88° WSW 21:49:49 10° NNW
CZ-4C R/B 3.1 21:45:56 10° NW 21:52:45 72° NE 22:00:34 12° SE
COSMOS 2455 4.5 21:50:09 10° NNW 21:55:30 31° NE 22:00:50 10° E
Cosmos 2058 Rocket 3.0 21:51:22 10° NNW 21:55:44 84° W 21:57:25 37° S
ISS -3.9 21:53:00 10° WNW 21:56:20 82° SSW 21:57:18 43° ESE
COSMOS 2406 3.2 21:52:18 10° NNW 21:57:58 71° WSW 22:00:48 30° SSE
Cosmos 1934 Rocket 4.0 21:54:42 28° S 21:58:15 74° E 22:04:28 10° NNE
Cosmos 1782 3.2 21:54:45 10° N 21:58:27 48° ENE 21:59:39 34° SE
USA 290 3.0 21:58:15 28° WSW 21:59:34 47° WNW 22:02:41 10° NNE
Cosmos 482 Debris 4.1 21:54:57 10° WSW 21:59:44 81° SSE 22:03:12 10° ENE
ARIANE 5 R/B 3.8 21:58:54 22° SW 22:00:56 33° W 22:05:00 10° NNW
EP 1 4.4 21:58:34 10° NW 22:01:13 73° NE 22:01:32 62° E
Cosmos 1378 3.7 22:01:36 10° N 22:04:38 36° ENE 22:05:16 33° ESE
ATLAS 3B R/B 2.9 22:01:26 19° SSW 22:06:46 70° SE 22:14:25 10° NE
Cosmos 2221 4.5 22:04:38 10° NNE 22:07:50 20° ENE 22:10:18 13° ESE
Exosat Rocket 4.4 22:05:30 10° NNW 22:11:06 46° NE 22:14:42 17° ESE
NOSS 8 (H) 4.3 22:08:29 10° NW 22:11:33 66° SW 22:12:06 54° S
Cosmos 1943 Rocket 2.3 22:08:20 19° SW 22:12:26 77° WNW 22:18:06 10° NNE
Meteor 2-19 Rocket 4.4 22:06:17 10° N 22:12:29 88° W 22:15:45 30° S
USA 81 4.2 22:08:41 10° N 22:13:58 68° E 22:16:27 31° SSE
USA 281 3.2 22:09:48 24° SSE 22:14:02 83° ENE 22:20:40 10° NNW
Cosmos 2058 3.2 22:19:03 32° SW 22:20:44 58° WNW 22:24:47 10° N
ALOS 2 2.9 22:19:19 35° SSW 22:20:53 55° W 22:25:13 10° NNW
Cosmos 1812 Rocket 4.0 22:17:18 10° N 22:21:41 53° ENE 22:23:31 31° SE
Spot 2 4.2 22:20:40 37° S 22:22:20 65° WSW 22:26:40 10° NNW
Gbstr 26 Del rocket 3.6 22:17:17 10° WNW 22:22:25 87° SSW 22:28:49 10° ESE
H-2A R/B 2.9 22:19:55 10° NNE 22:23:36 33° E 22:24:34 29° SE
Meteor 2-3 Rocket 4.0 22:21:26 31° SSE 22:24:06 59° E 22:29:41 10° NNE
Alouette 2 Rocket 4.0 22:24:01 31° SW 22:25:59 67° WNW 22:31:43 10° NNE
Cosmos 407 Rocket 3.4 22:21:07 10° NNW 22:26:18 79° WSW 22:28:36 34° SSE
Cosmos 1602 Rocket 4.0 22:25:39 34° SE 22:27:02 47° E 22:31:13 10° NNE
Cosmos 1535 Rocket 4.4 22:24:51 30° S 22:28:06 85° E 22:34:18 10° N
SeaSat 1 3.1 22:26:56 31° SSW 22:28:37 41° WSW 22:33:17 10° NW
Cosmos 1544 4.1 22:30:25 20° WNW 22:30:25 20° WNW 22:31:56 10° NNW
Cosmos 192 4.5 22:28:59 27° SW 22:31:39 73° WNW 22:36:37 10° NNE
BREEZE-M DEB (TANK) 4.4 22:18:11 10° SW 22:31:42 37° SSE 22:35:55 10° E
NOSS 3-1 (C) 4.1 22:26:45 10° WSW 22:31:45 49° NW 22:37:53 10° NE
SL-27 R/B 4.4 22:30:38 10° NNE 22:32:36 17° NE 22:33:52 13° E
Cosmos 1271 Rocket 2.5 22:33:32 50° S 22:34:26 87° E 22:38:14 10° NNE
Okean 1-7 Rocket 3.8 22:33:58 38° SSE 22:35:24 58° E 22:39:43 10° NNE
Cosmos 1605 Rocket 3.9 22:32:33 30° S 22:35:44 83° E 22:41:54 10° N
Cosmos 1666 3.3 22:37:15 33° ESE 22:37:41 35° E 22:40:49 10° NNE
USA 305 2.0 22:37:26 10° WNW 22:40:34 67° WSW 22:40:34 67° WSW
Cosmos 1238 Rocket 3.5 22:38:07 10° NNW 22:41:15 36° W 22:42:01 32° WSW
Meteor 1-26 Rocket 4.3 22:35:47 10° N 22:41:17 74° ENE 22:44:14 29° SSE
Lacrosse 5 rocket 3.1 22:44:25 17° ESE 22:44:25 17° ESE 22:46:19 10° E
Cosmos 1758 Rocket 3.4 22:43:54 42° S 22:45:21 83° E 22:49:40 10° NNE
Timation 1 Rocket 4.3 22:41:36 10° NW 22:47:36 72° WSW 22:50:42 30° SSE
Cosmos 1500 3.0 22:47:50 53° SE 22:48:19 61° E 22:51:40 10° NNE
Cosmos 1461 4.4 22:45:06 10° NNW 22:48:33 31° NE 22:52:00 10° ESE
Cosmos 2251 Rocket 3.7 22:43:31 10° NNW 22:48:48 61° WSW 22:51:00 34° S
Cosmos 2297 3.8 22:46:45 32° S 22:49:18 61° ESE 22:54:57 10° NE
Cosmos 1626 Rocket 3.7 22:48:21 35° SW 22:49:59 62° WNW 22:54:16 10° N
Cosmos 1933 3.4 22:48:16 10° NNW 22:52:09 59° W 22:53:09 43° SSW
Cosmos 1140 Rocket 4.4 22:48:32 10° NW 22:53:06 33° WSW 22:54:49 26° SW
Cosmos 1447 Rocket 4.5 22:52:04 10° NNW 22:58:22 77° W 23:01:37 30° S
Cosmos 1624 Rocket 4.3 22:57:43 32° SSE 22:59:48 52° ESE 23:04:53 10° NNE
Cosmos 1954 Rocket 3.9 22:55:04 10° NNW 23:00:16 85° ENE 23:02:58 29° SSE
SL-8 R/B 4.4 23:00:52 33° SSE 23:01:02 33° SSE 23:05:21 10° E
SJ 16-02 4.0 22:58:18 10° N 23:01:05 16° NE 23:03:51 10° E
Meteor 2-21 4.5 22:56:50 10° N 23:03:01 83° E 23:06:31 28° SSE
Cosmos-2242 3.9 23:00:46 10° NNW 23:04:38 36° W 23:05:51 29° SW
USA 307 2.2 23:01:23 10° WNW 23:05:05 68° SSW 23:05:31 59° SSE
Cosmos 1420 Rocket 4.0 23:04:44 33° S 23:07:07 74° ESE 23:12:25 10° NNE
Helios 1A Rocket 4.4 23:05:56 15° ESE 23:08:24 29° ENE 23:11:47 10° N
CENTAUR R/B 3.5 23:00:33 10° NW 23:08:30 69° NE 23:17:40 10° SE
Cosmos 2173 Rocket 4.3 23:05:22 26° SSE 23:08:41 56° E 23:14:38 10° NNE
Lacrosse 5 3.1 23:04:03 10° WNW 23:08:54 43° NNE 23:13:45 10° E
NOSS 3-1 (A) 3.9 23:04:03 10° WSW 23:09:06 53° NW 23:15:18 10° NE
Cosmos 2082 Rocket 3.9 23:08:14 10° WNW 23:11:41 17° W 23:13:28 15° WSW
Cosmos 2056 Rocket 3.6 23:11:01 33° S 23:13:22 68° ESE 23:18:35 10° NNE
Cosmos 1656 Rocket 3.6 23:13:38 29° SSW 23:16:34 84° WNW 23:22:10 10° NNE
Cosmos 2278 Rocket 4.3 23:16:22 10° W 23:20:50 23° NW 23:25:18 10° NNE
Lacrosse 4 Rocket 1.8 23:20:40 38° SSE 23:21:40 46° ESE 23:25:36 10° NE
Cosmos 2369 Rocket 2.1 23:19:37 30° SSW 23:22:28 82° ESE 23:28:07 10° NNE
Cosmos 1602 3.6 23:24:54 44° SSE 23:25:51 67° E 23:29:28 10° NNE
Iridium 4 Rocket 3.9 23:23:15 10° N 23:28:53 64° W 23:31:55 29° SSW
ISS -1.1 23:30:03 10° W 23:30:09 10° W 23:30:09 10° W
Cosmos 676 Rocket 4.0 23:29:11 10° NNW 23:34:19 64° WSW 23:36:47 30° S
USA 229 DEB 3.6 23:32:18 22° SW 23:36:37 85° NW 23:43:34 10° NE
Cosmos 2263 4.2 23:33:41 29° SSW 23:36:42 79° ESE 23:42:28 10° NNE
USA 229 3.6 23:32:27 22° SW 23:36:44 86° NW 23:43:41 10° NE
Cosmos 1862 4.3 23:35:38 26° WSW 23:37:00 34° WNW 23:40:34 10° N
NOSS 3-2 (A) 4.3 23:31:58 10° NW 23:39:04 69° NE 23:47:34 10° SE
Cosmos 2297 Rocket 4.3 23:35:21 10° NNW 23:40:04 26° NE 23:44:46 10° E
CZ-4C R/B 3.6 23:34:30 10° NW 23:41:12 39° WSW 23:45:35 24° S
Cosmos 482 Debris 4.2 23:37:51 10° W 23:41:43 63° N 23:44:34 10° E
COSMOS 2455 2.8 23:35:59 10° NW 23:42:03 78° WSW 23:46:54 16° SSE
Cosmos 1340 Rocket 2.7 23:39:16 10° NNW 23:43:10 85° ENE 23:44:47 34° SSE
Meteor 2-21 Rocket 4.5 23:37:57 10° NNW 23:44:03 71° W 23:47:39 26° S
Resurs 1-4 Rocket 3.8 23:39:53 10° NE 23:44:13 25° E 23:48:07 12° SE
Cosmos 2221 2.9 23:41:18 10° NNW 23:45:24 48° W 23:46:52 33° SW
Cosmos 1741 Rocket 4.2 23:43:25 10° NNW 23:48:44 71° ENE 23:53:19 14° SSE
ADEOS II 4.2 23:46:28 10° NE 23:50:02 18° E 23:53:35 10° SE
Okean 1 3.7 23:50:29 10° N 23:54:13 55° ENE 23:56:20 23° SSE
SL-24 DEB 4.2 23:50:03 10° N 23:54:44 83° W 23:57:06 29° SSW
